Independence, KS

12:21 PM CDT on August 20, 2017 (GMT -0500)
Independence Municipal

Weather History for KIDP - February, 2014

Change the Weather History Date:

Thursday, February 20, 2014

  Actual Average (KCFV) Record (KCFV)
Temperature  
Mean Temperature 50 °F -  
Max Temperature 62 °F 49 °F 80 °F (2016)
Min Temperature 37 °F 30 °F 19 °F (2015)
Degree Days  
Heating Degree Days 16    
Moisture  
Dew Point 36 °F    
Average Humidity 59    
Maximum Humidity 94    
Minimum Humidity 25    
Precipitation  
Precipitation 0.00 in - - ()
Sea Level Pressure  
Sea Level Pressure 29.66 in    
Wind  
Wind Speed 18 mph (WSW)    
Max Wind Speed 37 mph    
Max Gust Speed 50 mph    
Visibility 10 miles    
Events      
Averages and records for this station are not official NWS values.
T = Trace of Precipitation, MM = Missing Value Source: NWS Daily Summary

Daily Weather History Graph

Daily Weather History Graph

Search for Another Location

Airport or City:

Trip Planner

Search our weather history database for the weather conditions in past years. The results will help you decide how hot, cold, wet, or windy it might be!

Date:

Astronomy

Feb. 20, 2014 Rise Set
Actual Time 7:05 AM CST 6:08 PM CST
Civil Twilight 6:39 AM CST 6:34 PM CST
Nautical Twilight 6:09 AM CST 7:05 PM CST
Astronomical Twilight 5:39 AM CST 7:35 PM CST
Moon 11:54 PM CST 9:57 AM CST
Length of Visible Light 11h 55m
Length of Day
11h 02m
Waning Gibbous, 70% of the Moon is Illuminated
Feb 20
Waning Gibbous
Feb 22
Last Quarter
Mar 1
New
Mar 8
First Quarter
Mar 16
Full

Hourly Weather History & Observations

Time (CST) Temp. Windchill Dew Point Humidity Pressure Visibility Wind Dir Wind Speed Gust Speed Precip Events Conditions
12:15 AM 59.0 °F - 57.2 °F 94% 29.53 in 7.0 mi South 11.5 mph - N/A   Overcast
12:35 AM 59.0 °F - 55.4 °F 88% 29.52 in 7.0 mi South 11.5 mph - N/A   Overcast
12:55 AM 59.0 °F - 55.4 °F 88% 29.51 in 7.0 mi South 9.2 mph - N/A   Overcast
1:15 AM 59.0 °F - 55.4 °F 88% 29.50 in 7.0 mi SSE 6.9 mph - N/A   Overcast
1:35 AM 59.0 °F - 55.4 °F 88% 29.48 in 7.0 mi SSE 13.8 mph - N/A   Overcast
1:55 AM 59.0 °F - 55.4 °F 88% 29.47 in 7.0 mi South 10.4 mph - N/A   Overcast
2:15 AM 59.0 °F - 55.4 °F 88% 29.45 in 10.0 mi SSE 13.8 mph - N/A   Overcast
2:35 AM 60.8 °F - 55.4 °F 82% 29.44 in 10.0 mi South 16.1 mph 23.0 mph N/A   Overcast
2:55 AM 60.8 °F - 55.4 °F 82% 29.43 in 10.0 mi South 16.1 mph - N/A   Overcast
3:15 AM 60.8 °F - 55.4 °F 82% 29.42 in 10.0 mi South 20.7 mph 24.2 mph N/A   Overcast
3:35 AM 60.8 °F - 55.4 °F 82% 29.40 in 10.0 mi South 16.1 mph 27.6 mph N/A   Overcast
3:55 AM 60.8 °F - 55.4 °F 82% 29.38 in 10.0 mi South 18.4 mph - N/A   Overcast
4:15 AM 60.8 °F - 55.4 °F 82% 29.37 in 10.0 mi South 13.8 mph 25.3 mph N/A   Mostly Cloudy
4:35 AM 60.8 °F - 55.4 °F 82% 29.36 in 10.0 mi South 15.0 mph 24.2 mph N/A   Mostly Cloudy
4:55 AM 60.8 °F - 55.4 °F 82% 29.35 in 10.0 mi South 16.1 mph 20.7 mph N/A   Overcast
5:15 AM 60.8 °F - 57.2 °F 88% 29.35 in 10.0 mi South 17.3 mph 21.9 mph N/A   Overcast
5:35 AM 60.8 °F - 57.2 °F 88% 29.34 in 10.0 mi South 17.3 mph 21.9 mph N/A   Overcast
5:55 AM 60.8 °F - 57.2 °F 88% 29.35 in 10.0 mi South 15.0 mph - N/A   Overcast
6:15 AM 60.8 °F - 57.2 °F 88% 29.34 in 10.0 mi South 17.3 mph 20.7 mph N/A   Mostly Cloudy
6:35 AM 62.6 °F - 55.4 °F 77% 29.34 in 10.0 mi SSW 18.4 mph 28.8 mph N/A   Mostly Cloudy
6:55 AM 62.6 °F - 55.4 °F 77% 29.34 in 10.0 mi SSW 20.7 mph 31.1 mph N/A   Mostly Cloudy
7:15 AM 62.6 °F - 55.4 °F 77% 29.34 in 10.0 mi SSW 20.7 mph 27.6 mph N/A   Scattered Clouds
7:35 AM 62.6 °F - 55.4 °F 77% 29.34 in 10.0 mi SSW 18.4 mph 29.9 mph N/A   Clear
7:55 AM 62.6 °F - 55.4 °F 77% 29.34 in 10.0 mi SSW 23.0 mph - N/A   Clear
8:15 AM 62.6 °F - 53.6 °F 72% 29.35 in 10.0 mi SW 24.2 mph 33.4 mph N/A   Clear
8:35 AM 62.6 °F - 44.6 °F 52% 29.35 in 10.0 mi WSW 28.8 mph 41.4 mph N/A   Clear
8:55 AM 62.6 °F - 42.8 °F 48% 29.37 in 10.0 mi SW 31.1 mph 36.8 mph N/A   Clear
9:15 AM 60.8 °F - 41.0 °F 48% 29.40 in 10.0 mi WSW 32.2 mph 40.3 mph N/A   Clear
9:35 AM 59.0 °F - 42.8 °F 55% 29.43 in 10.0 mi WSW 28.8 mph 39.1 mph N/A   Mostly Cloudy
9:55 AM 51.8 °F - 41.0 °F 67% 29.48 in 10.0 mi WNW 34.5 mph 48.3 mph N/A   Overcast
10:15 AM 46.4 °F 37.4 °F 37.4 °F 71% 29.52 in 10.0 mi WNW 28.8 mph 38.0 mph N/A   Overcast
10:35 AM 44.6 °F 33.9 °F 33.8 °F 66% 29.57 in 10.0 mi WNW 35.7 mph 42.6 mph N/A   Overcast
10:55 AM 42.8 °F 31.3 °F 32.0 °F 66% 29.61 in 10.0 mi WNW 36.8 mph 44.9 mph N/A   Overcast
11:15 AM 42.8 °F 31.6 °F 32.0 °F 66% 29.65 in 10.0 mi NW 34.5 mph 49.5 mph N/A   Overcast
11:35 AM 42.8 °F 33.1 °F 32.0 °F 66% 29.67 in 10.0 mi NW 25.3 mph 38.0 mph N/A   Overcast
11:55 AM 42.8 °F 33.3 °F 32.0 °F 66% 29.68 in 10.0 mi NW 24.2 mph 41.4 mph N/A   Overcast
12:15 PM 42.8 °F 33.5 °F 32.0 °F 66% 29.74 in 10.0 mi NW 23.0 mph 31.1 mph N/A   Overcast
12:35 PM 44.6 °F 35.9 °F 32.0 °F 61% 29.76 in 10.0 mi NNW 23.0 mph 39.1 mph N/A   Overcast
12:55 PM 44.6 °F 35.9 °F 32.0 °F 61% 29.78 in 10.0 mi NW 23.0 mph 40.3 mph N/A   Overcast
1:15 PM 48.2 °F - 32.0 °F 54% 29.78 in 10.0 mi NNW 26.5 mph 33.4 mph N/A   Mostly Cloudy
1:35 PM 46.4 °F 37.7 °F 32.0 °F 57% 29.80 in 10.0 mi NW 26.5 mph 34.5 mph N/A   Overcast
1:55 PM 44.6 °F 35.1 °F 32.0 °F 61% 29.82 in 10.0 mi NW 27.6 mph 39.1 mph N/A   Overcast
2:15 PM 46.4 °F 37.9 °F 30.2 °F 53% 29.83 in 10.0 mi NW 25.3 mph 36.8 mph N/A   Mostly Cloudy
2:35 PM 50.0 °F - 30.2 °F 47% 29.84 in 10.0 mi WNW 21.9 mph 32.2 mph N/A   Mostly Cloudy
2:55 PM 50.0 °F - 28.4 °F 43% 29.84 in 10.0 mi NW 26.5 mph 36.8 mph N/A   Mostly Cloudy
3:15 PM 50.0 °F - 26.6 °F 40% 29.85 in 10.0 mi WNW 26.5 mph 34.5 mph N/A   Scattered Clouds
3:35 PM 50.0 °F - 26.6 °F 40% 29.85 in 10.0 mi NW 23.0 mph 31.1 mph N/A   Scattered Clouds
3:55 PM 51.8 °F - 26.6 °F 38% 29.86 in 10.0 mi NW 20.7 mph 26.5 mph N/A   Mostly Cloudy
4:15 PM 51.8 °F - 23.0 °F 33% 29.86 in 10.0 mi WNW 24.2 mph 29.9 mph N/A   Overcast
4:35 PM 50.0 °F - 21.2 °F 32% 29.87 in 10.0 mi WNW 20.7 mph 25.3 mph N/A   Scattered Clouds
4:55 PM 50.0 °F - 21.2 °F 32% 29.87 in 10.0 mi WNW 18.4 mph 24.2 mph N/A   Clear
5:15 PM 50.0 °F - 19.4 °F 30% 29.87 in 10.0 mi WNW 18.4 mph 23.0 mph N/A   Scattered Clouds
5:35 PM 50.0 °F - 19.4 °F 30% 29.88 in 10.0 mi WNW 20.7 mph 26.5 mph N/A   Scattered Clouds
5:55 PM 50.0 °F - 19.4 °F 30% 29.89 in 10.0 mi WNW 19.6 mph - N/A   Scattered Clouds
6:15 PM 48.2 °F - 14.0 °F 25% 29.89 in 10.0 mi West 20.7 mph 28.8 mph N/A   Clear
6:35 PM 46.4 °F 40.4 °F 14.0 °F 27% 29.90 in 10.0 mi West 13.8 mph 20.7 mph N/A   Clear
6:55 PM 46.4 °F 39.8 °F 14.0 °F 27% 29.91 in 10.0 mi West 16.1 mph 23.0 mph N/A   Clear
7:15 PM 46.4 °F 39.8 °F 14.0 °F 27% 29.92 in 10.0 mi West 16.1 mph 25.3 mph N/A   Clear
7:35 PM 44.6 °F 37.8 °F 15.8 °F 31% 29.92 in 10.0 mi West 15.0 mph - N/A   Clear
7:55 PM 44.6 °F 37.8 °F 15.8 °F 31% 29.93 in 10.0 mi West 15.0 mph 21.9 mph N/A   Clear
8:15 PM 44.6 °F 36.9 °F 17.6 °F 34% 29.94 in 10.0 mi West 18.4 mph 26.5 mph N/A   Clear
8:35 PM 44.6 °F 37.4 °F 17.6 °F 34% 29.94 in 10.0 mi West 16.1 mph 23.0 mph N/A   Clear
8:55 PM 42.8 °F 36.2 °F 17.6 °F 36% 29.95 in 10.0 mi West 12.7 mph 20.7 mph N/A   Clear
9:15 PM 42.8 °F 37.0 °F 17.6 °F 36% 29.95 in 10.0 mi West 10.4 mph - N/A   Clear
9:35 PM 41.0 °F 34.7 °F 17.6 °F 39% 29.95 in 10.0 mi West 10.4 mph - N/A   Clear
9:55 PM 41.0 °F 35.2 °F 17.6 °F 39% 29.95 in 10.0 mi West 9.2 mph - N/A   Clear
10:15 PM 39.2 °F 33.0 °F 19.4 °F 45% 29.96 in 10.0 mi WSW 9.2 mph - N/A   Clear
10:35 PM 37.4 °F 29.8 °F 19.4 °F 48% 29.96 in 10.0 mi West 11.5 mph - N/A   Clear
10:55 PM 39.2 °F 32.0 °F 19.4 °F 45% 29.96 in 10.0 mi West 11.5 mph - N/A   Clear
11:15 PM 37.4 °F 29.8 °F 19.4 °F 48% 29.96 in 10.0 mi West 11.5 mph - N/A   Clear
11:35 PM 37.4 °F 29.8 °F 19.4 °F 48% 29.97 in 10.0 mi West 11.5 mph - N/A   Clear
11:55 PM 37.4 °F 29.8 °F 21.2 °F 52% 29.97 in 10.0 mi WSW 11.5 mph - N/A   Clear